Location: Sabalos
(43.2860°N, 0.1414°E)
Time: 21:06:34
(UTC+00:00)

BREEZE M DEB (TANK) - Pass Details

Date: 05 July 2020
Orbit: 285 x 14544 km, 49.5° (Epoch: 14 August)

Event Time Altitude Azimuth Distance (km) Brightness Sun altitude
Rises 21:18:39 0° 297° (WNW) 2,864 7.8 -13.9°
Reaches altitude 10° 21:21:25 10° 302° (WNW) 1,427 6.1 -14.2°
Maximum altitude 21:23:56 57° 23° (NNE) 353 2.0 -14.5°
Enters shadow 21:24:37 34° 87° (E) 499 2.3 -14.5°
